Weather History for KFSD - July, 2012

Change the Weather History Date:

Saturday, July 7, 2012

  Actual Average Record
Temperature  
Mean Temperature 75 °F 73 °F  
Max Temperature 85 °F 84 °F 100 °F (1974)
Min Temperature 65 °F 62 °F 42 °F (1894)
Degree Days  
Heating Degree Days 0 0  
Month to date heating degree days 0 0  
Since 1 June heating degree days 21 51  
Since 1 July heating degree days 0 0  
Cooling Degree Days 10 8  
Month to date cooling degree days 136 55  
Year to date cooling degree days 463 226  
Since 1 June cooling degree days 377 190  
Growing Degree Days 25 (Base 50)    
Moisture  
Dew Point 60 °F    
Average Humidity 66    
Maximum Humidity 84    
Minimum Humidity 37    
Precipitation  
Precipitation 0.00 in 0.10 in 2.83 in (1912)
Month to date precipitation T 0.73  
Year to date precipitation 11.69 13.98  
Snow  
Snow 0.00 in 0.00 in T in (2005)
Month to date snowfall 0.0 0.0  
Since 1 June snowfall 0.0 0.0  
Since 1 July snowfall 0.0 0.0  
Snow Depth 0.00 in    
Sea Level Pressure  
Sea Level Pressure 30.10 in    
Wind  
Wind Speed 12 mph (NE)    
Max Wind Speed 22 mph    
Max Gust Speed 29 mph    
Visibility 10 miles    
Events      
T = Trace of Precipitation, MM = Missing Value Source: NWS Daily Summary

Daily Weather History Graph

Daily Weather History Graph

Search for Another Location

Airport or City:

Trip Planner

Search our weather history database for the weather conditions in past years. The results will help you decide how hot, cold, wet, or windy it might be!

Date:

Astronomy

Jul. 07, 2012 Rise Set
Actual Time 5:53 AM CDT 9:10 PM CDT
Civil Twilight 5:18 AM CDT 9:45 PM CDT
Nautical Twilight 4:32 AM CDT 10:30 PM CDT
Astronomical Twilight 3:36 AM CDT 11:26 PM CDT
Moon 11:19 PM CDT (7/7) 10:29 AM CDT (7/7)
Length of Visible Light 16h 26m
Length of Day
15h 16m
Waning Gibbous, 81% of the Moon is Illuminated
Jul 7
Waning Gibbous
Jul 10
Last Quarter
Jul 18
New
Jul 26
First Quarter
Aug 1
Full

Hourly Weather History & Observations

Time (CDT) Temp. Heat Index Dew Point Humidity Pressure Visibility Wind Dir Wind Speed Gust Speed Precip Events Conditions
12:56 AM 69.1 °F - 63.0 °F 81% 30.01 in 10.0 mi NNE 12.7 mph - N/A   Scattered Clouds
1:56 AM 68.0 °F - 62.1 °F 81% 30.02 in 10.0 mi NNE 11.5 mph - N/A   Clear
2:56 AM 68.0 °F - 62.1 °F 81% 30.04 in 10.0 mi NNE 8.1 mph - N/A   Scattered Clouds
3:56 AM 68.0 °F - 61.0 °F 78% 30.04 in 10.0 mi NNE 11.5 mph - N/A   Scattered Clouds
4:56 AM 66.9 °F - 61.0 °F 81% 30.05 in 10.0 mi NNE 11.5 mph 19.6 mph N/A   Scattered Clouds
5:19 AM 66.2 °F - 60.8 °F 83% 30.08 in 10.0 mi NNE 9.2 mph - N/A   Scattered Clouds
5:41 AM 66.2 °F - 60.8 °F 83% 30.09 in 10.0 mi NNE 10.4 mph - N/A   Mostly Cloudy
5:56 AM 66.0 °F - 61.0 °F 84% 30.06 in 10.0 mi NNE 12.7 mph 17.3 mph N/A   Mostly Cloudy
6:10 AM 66.2 °F - 60.8 °F 83% 30.09 in 10.0 mi NNE 11.5 mph - N/A   Overcast
6:38 AM 66.2 °F - 60.8 °F 83% 30.10 in 10.0 mi NE 11.5 mph - N/A   Mostly Cloudy
6:56 AM 66.0 °F - 60.1 °F 81% 30.08 in 10.0 mi NNE 12.7 mph 19.6 mph N/A   Mostly Cloudy
7:52 AM 68.0 °F - 60.8 °F 78% 30.12 in 10.0 mi NNE 15.0 mph - N/A   Mostly Cloudy
7:56 AM 68.0 °F - 60.1 °F 76% 30.09 in 10.0 mi NNE 12.7 mph - N/A   Mostly Cloudy
8:22 AM 69.8 °F - 60.8 °F 73% 30.13 in 10.0 mi NE 13.8 mph 21.9 mph N/A   Mostly Cloudy
8:56 AM 70.0 °F - 59.0 °F 68% 30.11 in 10.0 mi NE 15.0 mph - N/A   Scattered Clouds
9:56 AM 73.0 °F - 60.1 °F 64% 30.15 in 10.0 mi NE 10.4 mph - N/A   Scattered Clouds
10:56 AM 75.9 °F - 60.1 °F 58% 30.14 in 10.0 mi NE 15.0 mph 23.0 mph N/A   Clear
11:56 AM 78.1 °F - 59.0 °F 52% 30.15 in 10.0 mi ENE 18.4 mph 24.2 mph N/A   Clear
12:56 PM 81.0 °F 81.3 °F 59.0 °F 47% 30.14 in 10.0 mi ENE 17.3 mph - N/A   Clear
1:56 PM 81.0 °F 81.6 °F 60.1 °F 49% 30.12 in 10.0 mi ENE 16.1 mph 21.9 mph N/A   Clear
2:56 PM 84.9 °F 84.2 °F 57.9 °F 40% 30.11 in 10.0 mi NE 16.1 mph - N/A   Clear
3:56 PM 82.9 °F 82.6 °F 57.9 °F 42% 30.12 in 10.0 mi ENE 16.1 mph 20.7 mph N/A   Clear
4:56 PM 84.0 °F 83.5 °F 57.9 °F 41% 30.12 in 10.0 mi NNE 17.3 mph 23.0 mph N/A   Clear
5:56 PM 82.0 °F 81.7 °F 57.0 °F 42% 30.12 in 10.0 mi NNE 17.3 mph - N/A   Clear
6:56 PM 81.0 °F 81.3 °F 59.0 °F 47% 30.12 in 10.0 mi NE 13.8 mph 20.7 mph N/A   Partly Cloudy
7:56 PM 79.0 °F - 59.0 °F 50% 30.12 in 10.0 mi ENE 13.8 mph - N/A   Partly Cloudy
8:56 PM 75.9 °F - 59.0 °F 56% 30.13 in 10.0 mi ENE 6.9 mph - N/A   Scattered Clouds
9:56 PM 72.0 °F - 60.1 °F 66% 30.14 in 10.0 mi NNE 3.5 mph - N/A   Scattered Clouds
10:56 PM 69.1 °F - 61.0 °F 75% 30.15 in 10.0 mi Calm Calm - N/A   Scattered Clouds
11:56 PM 66.0 °F - 60.1 °F 81% 30.17 in 10.0 mi North 3.5 mph - N/A   Scattered Clouds